START_TIME,STEP,MOV.,EG07,t_acc.,EG08,t_acc.,EG09,t_acc.,EB05,t_acc.,EBP05,t_acc.
1979-07-18 15:00:22.750 ,1,0,1.,1.2,1.,1.2,0.,1.2,,0.0,,0.0
1979-07-18 15:00:23.950 ,1,0,1.,1.2,1.,1.2,0.,1.2,,0.0,,0.0
1979-07-18 15:00:25.150 ,1,0,1.,1.2,0.,1.2,0.,1.2,,0.0,,0.0
1979-07-18 15:00:26.350 ,1,0,0.,1.2,0.,1.2,0.,1.2,,0.0,,0.0
1979-07-18 15:00:27.550 ,1,0,0.,1.2,0.,1.2,0.,1.2,,0.0,,0.0
1979-07-18 15:00:28.750 ,1,0,0.,1.2,0.,1.2,0.,1.2,,0.0,,0.0
1979-07-18 15:00:29.950 ,1,0,0.,1.2,0.,1.2,0.,1.2,,0.0,,0.0
1979-07-18 15:00:31.150 ,1,0,1.,1.2,0.,1.2,0.,1.2,,0.0,,0.0
1979-07-18 15:00:32.350 ,1,0,0.,1.2,0.,1.2,0.,1.2,,0.0,,0.0
1979-07-18 15:00:33.550 ,1,0,0.,1.2,0.,1.2,0.,1.2,,0.0,,0.0
1979-07-18 15:00:34.750 ,1,0,0.,1.2,0.,1.2,0.,1.2,,0.0,,0.0
1979-07-18 15:00:35.950 ,1,0,0.,1.2,0.,1.2,0.,1.2,,0.0,,0.0
1979-07-18 15:00:37.150 ,1,0,1.,1.2,0.,1.2,0.,1.2,,0.0,,0.0
1979-07-18 15:00:38.350 ,1,0,0.,1.2,0.,1.2,0.,1.2,,0.0,,0.0
1979-07-18 15:00:39.550 ,1,0,0.,1.2,0.,1.2,0.,1.2,,0.0,,0.0
1979-07-18 15:00:40.750 ,1,0,0.,1.2,0.,1.2,0.,1.2,,0.0,,0.0
1979-07-18 15:00:41.950 ,1,0,0.,1.2,0.,1.2,0.,1.2,,0.0,,0.0
1979-07-18 15:00:43.150 ,1,0,0.,1.2,0.,1.2,0.,1.2,,0.0,,0.0
1979-07-18 15:00:44.350 ,1,0,0.,1.2,0.,1.2,0.,1.2,,0.0,,0.0
1979-07-18 15:00:45.550 ,1,0,0.,1.2,0.,1.2,0.,1.2,,0.0,,0.0
1979-07-18 15:00:46.750 ,2,0,1.,1.2,0.,1.2,0.,1.2,,0.0,,0.0
1979-07-18 15:00:47.950 ,2,0,1.,1.2,1.,1.2,1.,1.2,,0.0,,0.0
1979-07-18 15:00:49.150 ,2,0,0.,1.2,0.,1.2,0.,1.2,,0.0,,0.0
1979-07-18 15:00:50.350 ,2,0,0.,1.2,0.,1.2,0.,1.2,,0.0,,0.0
1979-07-18 15:00:51.550 ,2,0,0.,1.2,0.,1.2,0.,1.2,,0.0,,0.0
1979-07-18 15:00:52.750 ,2,0,0.,1.2,0.,1.2,0.,1.2,,0.0,,0.0
1979-07-18 15:00:53.950 ,2,0,0.,1.2,0.,1.2,0.,1.2,,0.0,,0.0
1979-07-18 15:00:55.150 ,2,0,0.,1.2,0.,1.2,0.,1.2,,0.0,,0.0
1979-07-18 15:00:56.350 ,2,0,0.,1.2,0.,1.2,0.,1.2,,0.0,,0.0
1979-07-18 15:00:57.550 ,2,0,0.,1.2,0.,1.2,0.,1.2,,0.0,,0.0
1979-07-18 15:00:58.750 ,2,0,0.,1.2,0.,1.2,0.,1.2,,0.0,,0.0
1979-07-18 15:00:59.950 ,2,0,0.,1.2,0.,1.2,0.,1.2,,0.0,,0.0
1979-07-18 15:01:01.150 ,2,0,0.,1.2,0.,1.2,0.,1.2,,0.0,,0.0
1979-07-18 15:01:02.350 ,2,0,2.,1.2,1.,1.2,1.,1.2,,0.0,,0.0
1979-07-18 15:01:03.550 ,2,0,0.,1.2,0.,1.2,0.,1.2,,0.0,,0.0
1979-07-18 15:01:04.750 ,2,0,1.,1.2,1.,1.2,1.,1.2,,0.0,,0.0
1979-07-18 15:01:05.950 ,2,0,1.,1.2,0.,1.2,0.,1.2,,0.0,,0.0
1979-07-18 15:01:07.150 ,2,0,1.,1.2,0.,1.2,0.,1.2,,0.0,,0.0
1979-07-18 15:01:08.350 ,2,0,0.,1.2,0.,1.2,0.,1.2,,0.0,,0.0
1979-07-18 15:01:09.550 ,2,0,0.,1.2,0.,1.2,0.,1.2,,0.0,,0.0
1979-07-18 15:01:10.750 ,2,0,0.,1.2,0.,1.2,0.,1.2,,0.0,,0.0
1979-07-18 15:01:11.950 ,2,0,0.,1.2,0.,1.2,0.,1.2,,0.0,,0.0
1979-07-18 15:01:13.150 ,2,0,0.,1.2,0.,1.2,0.,1.2,,0.0,,0.0
1979-07-18 15:01:14.350 ,2,0,0.,1.2,0.,1.2,0.,1.2,,0.0,,0.0
1979-07-18 15:01:15.550 ,2,0,0.,1.2,0.,1.2,0.,1.2,,0.0,,0.0
1979-07-18 15:01:16.750 ,2,0,1.,1.2,1.,1.2,1.,1.2,,0.0,,0.0
1979-07-18 15:01:17.950 ,2,0,0.,1.2,0.,1.2,0.,1.2,,0.0,,0.0
1979-07-18 15:01:19.150 ,2,0,1.,1.2,0.,1.2,0.,1.2,,0.0,,0.0
1979-07-18 15:01:20.350 ,2,0,0.,1.2,0.,1.2,0.,1.2,,0.0,,0.0
1979-07-18 15:01:21.550 ,2,0,0.,1.2,0.,1.2,0.,1.2,,0.0,,0.0
1979-07-18 15:01:22.750 ,2,0,0.,1.2,0.,1.2,0.,1.2,,0.0,,0.0
1979-07-18 15:01:23.950 ,2,0,0.,1.2,0.,1.2,0.,1.2,,0.0,,0.0
1979-07-18 15:01:25.150 ,2,0,0.,1.2,0.,1.2,0.,1.2,,0.0,,0.0
1979-07-18 15:01:26.350 ,2,0,0.,1.2,0.,1.2,0.,1.2,,0.0,,0.0
1979-07-18 15:01:27.550 ,2,0,1.,1.2,0.,1.2,0.,1.2,,0.0,,0.0
1979-07-18 15:01:28.750 ,2,0,0.,1.2,0.,1.2,0.,1.2,,0.0,,0.0
1979-07-18 15:01:29.950 ,2,0,0.,1.2,0.,1.2,0.,1.2,,0.0,,0.0
1979-07-18 15:01:31.150 ,2,0,0.,1.2,0.,1.2,0.,1.2,,0.0,,0.0
1979-07-18 15:01:32.350 ,2,0,0.,1.2,0.,1.2,0.,1.2,,0.0,,0.0
1979-07-18 15:01:33.550 ,2,0,1.,1.2,0.,1.2,0.,1.2,,0.0,,0.0
1979-07-18 15:02:22.750 ,0,0,0.,1.2,0.,1.2,0.,1.2,,0.0,,0.0
1979-07-18 15:02:23.950 ,0,0,0.,1.2,0.,1.2,0.,1.2,,0.0,,0.0
1979-07-18 15:02:25.150 ,0,0,1.,1.2,1.,1.2,0.,1.2,,0.0,,0.0
1979-07-18 15:02:26.350 ,0,0,0.,1.2,0.,1.2,0.,1.2,,0.0,,0.0
1979-07-18 15:02:27.550 ,0,0,1.,1.2,0.,1.2,0.,1.2,,0.0,,0.0
1979-07-18 15:02:28.750 ,0,0,0.,1.2,0.,1.2,0.,1.2,,0.0,,0.0
1979-07-18 15:02:29.950 ,0,0,0.,1.2,0.,1.2,0.,1.2,,0.0,,0.0
1979-07-18 15:02:31.150 ,0,0,0.,1.2,0.,1.2,0.,1.2,,0.0,,0.0
1979-07-18 15:02:32.350 ,0,0,0.,1.2,0.,1.2,0.,1.2,,0.0,,0.0
1979-07-18 15:02:33.550 ,0,0,1.,1.2,0.,1.2,0.,1.2,,0.0,,0.0
1979-07-18 15:02:34.750 ,0,0,0.,1.2,0.,1.2,0.,1.2,,0.0,,0.0
1979-07-18 15:02:35.950 ,0,0,1.,1.2,0.,1.2,0.,1.2,,0.0,,0.0
1979-07-18 15:02:37.150 ,0,0,1.,1.2,1.,1.2,0.,1.2,,0.0,,0.0
1979-07-18 15:02:38.350 ,0,0,0.,1.2,0.,1.2,0.,1.2,,0.0,,0.0
1979-07-18 15:02:39.550 ,0,0,0.,1.2,0.,1.2,0.,1.2,,0.0,,0.0
1979-07-18 15:02:40.750 ,0,0,1.,1.2,1.,1.2,1.,1.2,,0.0,,0.0
1979-07-18 15:02:41.950 ,0,0,0.,1.2,0.,1.2,0.,1.2,,0.0,,0.0
1979-07-18 15:02:43.150 ,0,0,0.,1.2,0.,1.2,0.,1.2,,0.0,,0.0
1979-07-18 15:02:44.350 ,0,0,0.,1.2,0.,1.2,0.,1.2,,0.0,,0.0
1979-07-18 15:02:45.550 ,0,0,1.,1.2,0.,1.2,0.,1.2,,0.0,,0.0
1979-07-18 15:02:46.750 ,0,0,0.,1.2,0.,1.2,0.,1.2,,0.0,,0.0
1979-07-18 15:02:47.950 ,0,0,0.,1.2,0.,1.2,0.,1.2,,0.0,,0.0
1979-07-18 15:02:49.150 ,0,0,0.,1.2,0.,1.2,0.,1.2,,0.0,,0.0
1979-07-18 15:02:50.350 ,0,0,0.,1.2,0.,1.2,0.,1.2,,0.0,,0.0
1979-07-18 15:02:51.550 ,0,0,1.,1.2,0.,1.2,0.,1.2,,0.0,,0.0
1979-07-18 15:02:52.750 ,0,0,0.,1.2,0.,1.2,0.,1.2,,0.0,,0.0
1979-07-18 15:02:53.950 ,0,0,0.,1.2,0.,1.2,0.,1.2,,0.0,,0.0
1979-07-18 15:02:55.150 ,0,0,0.,1.2,0.,1.2,0.,1.2,,0.0,,0.0
1979-07-18 15:02:56.350 ,0,0,0.,1.2,0.,1.2,0.,1.2,,0.0,,0.0
1979-07-18 15:02:57.550 ,0,0,0.,1.2,0.,1.2,0.,1.2,,0.0,,0.0
1979-07-18 15:02:58.750 ,0,0,0.,1.2,0.,1.2,0.,1.2,,0.0,,0.0
1979-07-18 15:02:59.950 ,0,0,0.,1.2,0.,1.2,0.,1.2,,0.0,,0.0
1979-07-18 15:03:01.150 ,0,0,3.,1.2,2.,1.2,1.,1.2,,0.0,,0.0
1979-07-18 15:03:02.350 ,0,0,0.,1.2,0.,1.2,0.,1.2,,0.0,,0.0
1979-07-18 15:03:03.550 ,0,0,0.,1.2,0.,1.2,0.,1.2,,0.0,,0.0
1979-07-18 15:03:04.750 ,0,0,1.,1.2,0.,1.2,0.,1.2,,0.0,,0.0
1979-07-18 15:03:05.950 ,0,0,0.,1.2,0.,1.2,0.,1.2,,0.0,,0.0
1979-07-18 15:03:07.150 ,0,0,0.,1.2,0.,1.2,0.,1.2,,0.0,,0.0
1979-07-18 15:03:08.350 ,0,0,0.,1.2,0.,1.2,0.,1.2,,0.0,,0.0
1979-07-18 15:03:09.550 ,0,0,0.,1.2,0.,1.2,0.,1.2,,0.0,,0.0
1979-07-18 15:03:10.750 ,5,0,0.,1.2,0.,1.2,0.,1.2,,0.0,,0.0
1979-07-18 15:03:11.950 ,5,0,1.,1.2,1.,1.2,0.,1.2,,0.0,,0.0
1979-07-18 15:03:13.150 ,5,0,0.,1.2,0.,1.2,0.,1.2,,0.0,,0.0
1979-07-18 15:03:14.350 ,5,0,1.,1.2,0.,1.2,0.,1.2,,0.0,,0.0
1979-07-18 15:03:15.550 ,5,0,0.,1.2,0.,1.2,0.,1.2,,0.0,,0.0
1979-07-18 15:03:16.750 ,5,0,0.,1.2,0.,1.2,0.,1.2,,0.0,,0.0
1979-07-18 15:03:17.950 ,5,0,1.,1.2,1.,1.2,0.,1.2,,0.0,,0.0
1979-07-18 15:03:19.150 ,5,0,0.,1.2,0.,1.2,0.,1.2,,0.0,,0.0
1979-07-18 15:03:20.350 ,5,0,1.,1.2,0.,1.2,0.,1.2,,0.0,,0.0
1979-07-18 15:03:21.550 ,5,0,0.,1.2,0.,1.2,0.,1.2,,0.0,,0.0
1979-07-18 15:03:22.750 ,5,0,0.,1.2,0.,1.2,0.,1.2,,0.0,,0.0
1979-07-18 15:03:23.950 ,5,0,1.,1.2,1.,1.2,1.,1.2,,0.0,,0.0
1979-07-18 15:03:25.150 ,5,0,0.,1.2,0.,1.2,0.,1.2,,0.0,,0.0
1979-07-18 15:03:26.350 ,5,0,0.,1.2,0.,1.2,0.,1.2,,0.0,,0.0
1979-07-18 15:03:27.550 ,5,0,0.,1.2,0.,1.2,0.,1.2,,0.0,,0.0
1979-07-18 15:03:28.750 ,5,0,0.,1.2,0.,1.2,0.,1.2,,0.0,,0.0
1979-07-18 15:03:29.950 ,5,0,0.,1.2,0.,1.2,0.,1.2,,0.0,,0.0
1979-07-18 15:03:31.150 ,5,0,0.,1.2,0.,1.2,0.,1.2,,0.0,,0.0
1979-07-18 15:03:32.350 ,5,0,0.,1.2,0.,1.2,0.,1.2,,0.0,,0.0
1979-07-18 15:03:33.550 ,5,0,0.,1.2,0.,1.2,0.,1.2,,0.0,,0.0
1979-07-18 15:03:34.750 ,5,0,0.,1.2,0.,1.2,0.,1.2,,0.0,,0.0
1979-07-18 15:03:35.950 ,5,0,0.,1.2,0.,1.2,0.,1.2,,0.0,,0.0
1979-07-18 15:03:37.150 ,5,0,0.,1.2,0.,1.2,0.,1.2,,0.0,,0.0
1979-07-18 15:03:38.350 ,5,0,0.,1.2,0.,1.2,0.,1.2,,0.0,,0.0
1979-07-18 15:03:39.550 ,5,0,0.,1.2,0.,1.2,0.,1.2,,0.0,,0.0
1979-07-18 15:03:40.750 ,5,0,0.,1.2,0.,1.2,0.,1.2,,0.0,,0.0
1979-07-18 15:03:41.950 ,5,0,0.,1.2,0.,1.2,0.,1.2,,0.0,,0.0
1979-07-18 15:03:43.150 ,5,0,1.,1.2,1.,1.2,1.,1.2,,0.0,,0.0
1979-07-18 15:03:44.350 ,5,0,0.,1.2,0.,1.2,0.,1.2,,0.0,,0.0
1979-07-18 15:03:45.550 ,5,0,0.,1.2,0.,1.2,0.,1.2,,0.0,,0.0
1979-07-18 15:03:46.750 ,5,0,0.,1.2,0.,1.2,0.,1.2,,0.0,,0.0
1979-07-18 15:03:47.950 ,5,0,0.,1.2,0.,1.2,0.,1.2,,0.0,,0.0
1979-07-18 15:03:49.150 ,5,0,0.,1.2,0.,1.2,0.,1.2,,0.0,,0.0
1979-07-18 15:03:50.350 ,5,0,0.,1.2,0.,1.2,0.,1.2,,0.0,,0.0
1979-07-18 15:03:51.550 ,5,0,0.,1.2,0.,1.2,0.,1.2,,0.0,,0.0
1979-07-18 15:03:52.750 ,5,0,0.,1.2,0.,1.2,0.,1.2,,0.0,,0.0
1979-07-18 15:03:53.950 ,5,0,0.,1.2,0.,1.2,0.,1.2,,0.0,,0.0
1979-07-18 15:03:55.150 ,5,0,0.,1.2,0.,1.2,0.,1.2,,0.0,,0.0
1979-07-18 15:03:56.350 ,5,0,1.,1.2,0.,1.2,0.,1.2,,0.0,,0.0
1979-07-18 15:03:57.550 ,5,0,1.,1.2,1.,1.2,0.,1.2,,0.0,,0.0
1979-07-18 15:03:58.750 ,6,0,0.,1.2,0.,1.2,0.,1.2,,0.0,,0.0
1979-07-18 15:03:59.950 ,6,0,0.,1.2,0.,1.2,0.,1.2,,0.0,,0.0
1979-07-18 15:04:01.150 ,6,0,0.,1.2,0.,1.2,0.,1.2,,0.0,,0.0
1979-07-18 15:04:02.350 ,6,0,1.,1.2,0.,1.2,0.,1.2,,0.0,,0.0
1979-07-18 15:04:03.550 ,6,0,0.,1.2,0.,1.2,0.,1.2,,0.0,,0.0
1979-07-18 15:04:04.750 ,6,0,1.,1.2,1.,1.2,1.,1.2,,0.0,,0.0
1979-07-18 15:04:05.950 ,6,0,0.,1.2,0.,1.2,0.,1.2,,0.0,,0.0
1979-07-18 15:04:07.150 ,6,0,0.,1.2,0.,1.2,0.,1.2,,0.0,,0.0
1979-07-18 15:04:08.350 ,6,0,0.,1.2,0.,1.2,0.,1.2,,0.0,,0.0
1979-07-18 15:04:09.550 ,6,0,1.,1.2,0.,1.2,0.,1.2,,0.0,,0.0
1979-07-18 15:04:10.750 ,6,0,1.,1.2,0.,1.2,0.,1.2,,0.0,,0.0
1979-07-18 15:04:11.950 ,6,0,1.,1.2,0.,1.2,0.,1.2,,0.0,,0.0
1979-07-18 15:04:13.150 ,6,0,1.,1.2,0.,1.2,0.,1.2,,0.0,,0.0
1979-07-18 15:04:14.350 ,6,0,0.,1.2,0.,1.2,0.,1.2,,0.0,,0.0
1979-07-18 15:04:15.550 ,6,0,1.,1.2,0.,1.2,0.,1.2,,0.0,,0.0
1979-07-18 15:04:16.750 ,6,0,0.,1.2,0.,1.2,0.,1.2,,0.0,,0.0
1979-07-18 15:04:17.950 ,6,0,0.,1.2,0.,1.2,0.,1.2,,0.0,,0.0
1979-07-18 15:04:19.150 ,6,0,0.,1.2,0.,1.2,0.,1.2,,0.0,,0.0
1979-07-18 15:04:20.350 ,6,0,0.,1.2,0.,1.2,0.,1.2,,0.0,,0.0
1979-07-18 15:04:21.550 ,6,0,0.,1.2,0.,1.2,0.,1.2,,0.0,,0.0
1979-07-18 15:04:22.750 ,6,0,1.,1.2,1.,1.2,1.,1.2,,0.0,,0.0
1979-07-18 15:04:23.950 ,6,0,0.,1.2,0.,1.2,0.,1.2,,0.0,,0.0
1979-07-18 15:04:25.150 ,6,0,0.,1.2,0.,1.2,0.,1.2,,0.0,,0.0
1979-07-18 15:04:26.350 ,6,0,0.,1.2,0.,1.2,0.,1.2,,0.0,,0.0
1979-07-18 15:04:27.550 ,6,0,0.,1.2,0.,1.2,0.,1.2,,0.0,,0.0
1979-07-18 15:04:28.750 ,6,0,0.,1.2,0.,1.2,0.,1.2,,0.0,,0.0
1979-07-18 15:04:29.950 ,6,0,1.,1.2,1.,1.2,0.,1.2,,0.0,,0.0
1979-07-18 15:04:31.150 ,6,0,1.,1.2,0.,1.2,0.,1.2,,0.0,,0.0
1979-07-18 15:04:32.350 ,6,0,0.,1.2,0.,1.2,0.,1.2,,0.0,,0.0
1979-07-18 15:04:33.550 ,6,0,0.,1.2,0.,1.2,0.,1.2,,0.0,,0.0
1979-07-18 15:04:34.750 ,6,0,0.,1.2,0.,1.2,0.,1.2,,0.0,,0.0
1979-07-18 15:04:35.950 ,6,0,1.,1.2,0.,1.2,0.,1.2,,0.0,,0.0
1979-07-18 15:04:37.150 ,6,0,0.,1.2,0.,1.2,0.,1.2,,0.0,,0.0
1979-07-18 15:04:38.350 ,6,0,0.,1.2,0.,1.2,0.,1.2,,0.0,,0.0
1979-07-18 15:04:39.550 ,6,0,0.,1.2,0.,1.2,0.,1.2,,0.0,,0.0
1979-07-18 15:04:40.750 ,6,0,0.,1.2,0.,1.2,0.,1.2,,0.0,,0.0
1979-07-18 15:04:41.950 ,6,0,0.,1.2,0.,1.2,0.,1.2,,0.0,,0.0
1979-07-18 15:04:43.150 ,6,0,0.,1.2,0.,1.2,0.,1.2,,0.0,,0.0
1979-07-18 15:04:44.350 ,6,0,0.,1.2,0.,1.2,0.,1.2,,0.0,,0.0
1979-07-18 15:04:45.550 ,6,0,0.,1.2,0.,1.2,0.,1.2,,0.0,,0.0
1979-07-18 15:04:46.750 ,7,0,0.,1.2,0.,1.2,0.,1.2,,0.0,,0.0
1979-07-18 15:04:47.950 ,7,0,0.,1.2,0.,1.2,0.,1.2,,0.0,,0.0
1979-07-18 15:04:49.150 ,7,0,0.,1.2,0.,1.2,0.,1.2,,0.0,,0.0
1979-07-18 15:04:50.350 ,7,0,1.,1.2,1.,1.2,0.,1.2,,0.0,,0.0
1979-07-18 15:04:51.550 ,7,0,0.,1.2,0.,1.2,0.,1.2,,0.0,,0.0
1979-07-18 15:04:52.750 ,7,0,0.,1.2,0.,1.2,0.,1.2,,0.0,,0.0
1979-07-18 15:04:53.950 ,7,0,0.,1.2,0.,1.2,0.,1.2,,0.0,,0.0
1979-07-18 15:04:55.150 ,7,0,1.,1.2,0.,1.2,0.,1.2,,0.0,,0.0
1979-07-18 15:04:56.350 ,7,0,0.,1.2,0.,1.2,0.,1.2,,0.0,,0.0
1979-07-18 15:04:57.550 ,7,0,0.,1.2,0.,1.2,0.,1.2,,0.0,,0.0
1979-07-18 15:04:58.750 ,7,0,0.,1.2,0.,1.2,0.,1.2,,0.0,,0.0
1979-07-18 15:04:59.950 ,7,0,0.,1.2,0.,1.2,0.,1.2,,0.0,,0.0
1979-07-18 15:05:01.150 ,7,0,2.,1.2,0.,1.2,0.,1.2,,0.0,,0.0
1979-07-18 15:05:02.350 ,7,0,0.,1.2,0.,1.2,0.,1.2,,0.0,,0.0
1979-07-18 15:05:03.550 ,7,0,0.,1.2,0.,1.2,0.,1.2,,0.0,,0.0
1979-07-18 15:05:04.750 ,7,0,1.,1.2,0.,1.2,0.,1.2,,0.0,,0.0
1979-07-18 15:05:05.950 ,7,0,0.,1.2,0.,1.2,0.,1.2,,0.0,,0.0
1979-07-18 15:05:07.150 ,7,0,0.,1.2,0.,1.2,0.,1.2,,0.0,,0.0
1979-07-18 15:05:08.350 ,7,0,0.,1.2,0.,1.2,0.,1.2,,0.0,,0.0
1979-07-18 15:05:09.550 ,7,0,0.,1.2,0.,1.2,0.,1.2,,0.0,,0.0
1979-07-18 15:05:10.750 ,7,0,0.,1.2,0.,1.2,0.,1.2,,0.0,,0.0
1979-07-18 15:05:11.950 ,7,0,1.,1.2,0.,1.2,0.,1.2,,0.0,,0.0
1979-07-18 15:05:13.150 ,7,0,0.,1.2,0.,1.2,0.,1.2,,0.0,,0.0
1979-07-18 15:05:14.350 ,7,0,0.,1.2,0.,1.2,0.,1.2,,0.0,,0.0
1979-07-18 15:05:15.550 ,7,0,1.,1.2,0.,1.2,0.,1.2,,0.0,,0.0
1979-07-18 15:05:16.750 ,7,0,0.,1.2,0.,1.2,0.,1.2,,0.0,,0.0
1979-07-18 15:05:17.950 ,7,0,0.,1.2,0.,1.2,0.,1.2,,0.0,,0.0
1979-07-18 15:05:19.150 ,7,0,0.,1.2,0.,1.2,0.,1.2,,0.0,,0.0
1979-07-18 15:05:20.350 ,7,0,0.,1.2,0.,1.2,0.,1.2,,0.0,,0.0
1979-07-18 15:05:21.550 ,7,0,0.,1.2,0.,1.2,0.,1.2,,0.0,,0.0
1979-07-18 15:05:22.750 ,7,0,0.,1.2,0.,1.2,0.,1.2,,0.0,,0.0
1979-07-18 15:05:23.950 ,7,0,0.,1.2,0.,1.2,0.,1.2,,0.0,,0.0
1979-07-18 15:05:25.150 ,7,0,0.,1.2,0.,1.2,0.,1.2,,0.0,,0.0
1979-07-18 15:05:26.350 ,7,0,1.,1.2,0.,1.2,0.,1.2,,0.0,,0.0
1979-07-18 15:05:27.550 ,7,0,0.,1.2,0.,1.2,0.,1.2,,0.0,,0.0
1979-07-18 15:05:28.750 ,7,0,0.,1.2,0.,1.2,0.,1.2,,0.0,,0.0
1979-07-18 15:05:29.950 ,7,0,0.,1.2,0.,1.2,0.,1.2,,0.0,,0.0
1979-07-18 15:05:31.150 ,7,0,0.,1.2,0.,1.2,0.,1.2,,0.0,,0.0
1979-07-18 15:05:32.350 ,7,0,1.,1.2,0.,1.2,0.,1.2,,0.0,,0.0
1979-07-18 15:05:33.550 ,7,0,1.,1.2,1.,1.2,0.,1.2,,0.0,,0.0
1979-07-18 15:05:34.750 ,7,0,0.,1.2,0.,1.2,0.,1.2,,0.0,,0.0
1979-07-18 15:05:35.950 ,7,0,0.,1.2,0.,1.2,0.,1.2,,0.0,,0.0
1979-07-18 15:05:37.150 ,7,0,0.,1.2,0.,1.2,0.,1.2,,0.0,,0.0
1979-07-18 15:05:38.350 ,7,0,0.,1.2,0.,1.2,0.,1.2,,0.0,,0.0
1979-07-18 15:05:39.550 ,7,0,0.,1.2,0.,1.2,0.,1.2,,0.0,,0.0
1979-07-18 15:05:40.750 ,7,0,0.,1.2,0.,1.2,0.,1.2,,0.0,,0.0
1979-07-18 15:05:41.950 ,7,0,0.,1.2,0.,1.2,0.,1.2,,0.0,,0.0
1979-07-18 15:05:43.150 ,7,0,0.,1.2,0.,1.2,0.,1.2,,0.0,,0.0
1979-07-18 15:05:44.350 ,7,0,0.,1.2,0.,1.2,0.,1.2,,0.0,,0.0
1979-07-18 15:05:45.550 ,7,0,0.,1.2,0.,1.2,0.,1.2,,0.0,,0.0
1979-07-18 15:05:46.750 ,7,0,1.,1.2,1.,1.2,0.,1.2,,0.0,,0.0
1979-07-18 15:05:47.950 ,7,0,0.,1.2,0.,1.2,0.,1.2,,0.0,,0.0
1979-07-18 15:05:49.150 ,7,0,0.,1.2,0.,1.2,0.,1.2,,0.0,,0.0
1979-07-18 15:05:50.350 ,7,0,0.,1.2,0.,1.2,0.,1.2,,0.0,,0.0
1979-07-18 15:05:51.550 ,7,0,0.,1.2,0.,1.2,0.,1.2,,0.0,,0.0
1979-07-18 15:05:52.750 ,7,0,0.,1.2,0.,1.2,0.,1.2,,0.0,,0.0
1979-07-18 15:05:53.950 ,7,0,0.,1.2,0.,1.2,0.,1.2,,0.0,,0.0
1979-07-18 15:05:55.150 ,7,0,0.,1.2,0.,1.2,0.,1.2,,0.0,,0.0
1979-07-18 15:05:56.350 ,7,0,0.,1.2,0.,1.2,0.,1.2,,0.0,,0.0
1979-07-18 15:05:57.550 ,7,0,0.,1.2,0.,1.2,0.,1.2,,0.0,,0.0
1979-07-18 15:05:58.750 ,7,0,1.,1.2,0.,1.2,0.,1.2,,0.0,,0.0
1979-07-18 15:05:59.950 ,7,0,0.,1.2,0.,1.2,0.,1.2,,0.0,,0.0
1979-07-18 15:06:01.150 ,7,0,1.,1.2,1.,1.2,0.,1.2,,0.0,,0.0
1979-07-18 15:06:02.350 ,7,0,1.,1.2,0.,1.2,0.,1.2,,0.0,,0.0
1979-07-18 15:06:03.550 ,7,0,0.,1.2,0.,1.2,0.,1.2,,0.0,,0.0
1979-07-18 15:06:04.750 ,7,0,0.,1.2,0.,1.2,0.,1.2,,0.0,,0.0
1979-07-18 15:06:05.950 ,7,0,1.,1.2,0.,1.2,0.,1.2,,0.0,,0.0
1979-07-18 15:06:07.150 ,7,0,1.,1.2,0.,1.2,0.,1.2,,0.0,,0.0
1979-07-18 15:06:08.350 ,7,0,0.,1.2,0.,1.2,0.,1.2,,0.0,,0.0
1979-07-18 15:06:09.550 ,7,0,2.,1.2,2.,1.2,0.,1.2,,0.0,,0.0
1979-07-18 15:06:10.750 ,7,0,0.,1.2,0.,1.2,0.,1.2,,0.0,,0.0
1979-07-18 15:06:11.950 ,7,0,0.,1.2,0.,1.2,0.,1.2,,0.0,,0.0
1979-07-18 15:06:13.150 ,7,0,0.,1.2,0.,1.2,0.,1.2,,0.0,,0.0
1979-07-18 15:06:14.350 ,7,0,0.,1.2,0.,1.2,0.,1.2,,0.0,,0.0
1979-07-18 15:06:15.550 ,7,0,0.,1.2,0.,1.2,0.,1.2,,0.0,,0.0
1979-07-18 15:06:16.750 ,7,0,0.,1.2,0.,1.2,0.,1.2,,0.0,,0.0
1979-07-18 15:06:17.950 ,7,0,0.,1.2,0.,1.2,0.,1.2,,0.0,,0.0
1979-07-18 15:06:19.150 ,7,0,1.,1.2,0.,1.2,0.,1.2,,0.0,,0.0
1979-07-18 15:06:20.350 ,7,0,0.,1.2,0.,1.2,0.,1.2,,0.0,,0.0
1979-07-18 15:06:21.550 ,7,0,0.,1.2,0.,1.2,0.,1.2,,0.0,,0.0
1979-07-18 15:06:22.750 ,6,0,0.,1.2,0.,1.2,0.,1.2,,0.0,,0.0
1979-07-18 15:06:23.950 ,6,0,0.,1.2,0.,1.2,0.,1.2,,0.0,,0.0
1979-07-18 15:06:25.150 ,6,0,0.,1.2,0.,1.2,0.,1.2,,0.0,,0.0
1979-07-18 15:06:26.350 ,6,0,1.,1.2,0.,1.2,0.,1.2,,0.0,,0.0
1979-07-18 15:06:27.550 ,6,0,0.,1.2,0.,1.2,0.,1.2,,0.0,,0.0
1979-07-18 15:06:28.750 ,6,0,0.,1.2,0.,1.2,0.,1.2,,0.0,,0.0
1979-07-18 15:06:29.950 ,6,0,0.,1.2,0.,1.2,0.,1.2,,0.0,,0.0
1979-07-18 15:06:31.150 ,6,0,0.,1.2,0.,1.2,0.,1.2,,0.0,,0.0
1979-07-18 15:06:32.350 ,6,0,0.,1.2,0.,1.2,0.,1.2,,0.0,,0.0
1979-07-18 15:06:33.550 ,6,0,0.,1.2,0.,1.2,0.,1.2,,0.0,,0.0
1979-07-18 15:06:34.750 ,6,0,0.,1.2,0.,1.2,0.,1.2,,0.0,,0.0
1979-07-18 15:06:35.950 ,6,0,0.,1.2,0.,1.2,0.,1.2,,0.0,,0.0
1979-07-18 15:06:37.150 ,6,0,1.,1.2,0.,1.2,0.,1.2,,0.0,,0.0
1979-07-18 15:06:38.350 ,6,0,0.,1.2,0.,1.2,0.,1.2,,0.0,,0.0
1979-07-18 15:06:39.550 ,6,0,0.,1.2,0.,1.2,0.,1.2,,0.0,,0.0
1979-07-18 15:06:40.750 ,6,0,0.,1.2,0.,1.2,0.,1.2,,0.0,,0.0
1979-07-18 15:06:41.950 ,6,0,2.,1.2,1.,1.2,1.,1.2,,0.0,,0.0
1979-07-18 15:06:43.150 ,6,0,0.,1.2,0.,1.2,0.,1.2,,0.0,,0.0
1979-07-18 15:06:44.350 ,6,0,0.,1.2,0.,1.2,0.,1.2,,0.0,,0.0
1979-07-18 15:06:45.550 ,6,0,0.,1.2,0.,1.2,0.,1.2,,0.0,,0.0
1979-07-18 15:06:46.750 ,6,0,0.,1.2,0.,1.2,0.,1.2,,0.0,,0.0
1979-07-18 15:06:47.950 ,6,0,0.,1.2,0.,1.2,0.,1.2,,0.0,,0.0
1979-07-18 15:06:49.150 ,6,0,0.,1.2,0.,1.2,0.,1.2,,0.0,,0.0
1979-07-18 15:06:50.350 ,6,0,1.,1.2,0.,1.2,0.,1.2,,0.0,,0.0
1979-07-18 15:06:51.550 ,6,0,0.,1.2,0.,1.2,0.,1.2,,0.0,,0.0
1979-07-18 15:06:52.750 ,6,0,1.,1.2,0.,1.2,0.,1.2,,0.0,,0.0
1979-07-18 15:06:53.950 ,6,0,0.,1.2,0.,1.2,0.,1.2,,0.0,,0.0
1979-07-18 15:06:55.150 ,6,0,1.,1.2,0.,1.2,0.,1.2,,0.0,,0.0
1979-07-18 15:06:56.350 ,6,0,0.,1.2,0.,1.2,0.,1.2,,0.0,,0.0
1979-07-18 15:06:57.550 ,6,0,0.,1.2,0.,1.2,0.,1.2,,0.0,,0.0
1979-07-18 15:06:58.750 ,6,0,0.,1.2,0.,1.2,0.,1.2,,0.0,,0.0
1979-07-18 15:06:59.950 ,6,0,0.,1.2,0.,1.2,0.,1.2,,0.0,,0.0
1979-07-18 15:07:01.150 ,6,0,0.,1.2,0.,1.2,0.,1.2,,0.0,,0.0
1979-07-18 15:07:02.350 ,6,0,0.,1.2,0.,1.2,0.,1.2,,0.0,,0.0
1979-07-18 15:07:03.550 ,6,0,0.,1.2,0.,1.2,0.,1.2,,0.0,,0.0
1979-07-18 15:07:04.750 ,6,0,1.,1.2,1.,1.2,0.,1.2,,0.0,,0.0
1979-07-18 15:07:05.950 ,6,0,0.,1.2,0.,1.2,0.,1.2,,0.0,,0.0
1979-07-18 15:07:07.150 ,6,0,1.,1.2,1.,1.2,0.,1.2,,0.0,,0.0
1979-07-18 15:07:08.350 ,6,0,1.,1.2,1.,1.2,0.,1.2,,0.0,,0.0
1979-07-18 15:07:09.550 ,6,0,1.,1.2,0.,1.2,0.,1.2,,0.0,,0.0
1979-07-18 15:07:10.750 ,5,0,1.,1.2,1.,1.2,0.,1.2,,0.0,,0.0
1979-07-18 15:07:11.950 ,5,0,0.,1.2,0.,1.2,0.,1.2,,0.0,,0.0
1979-07-18 15:07:13.150 ,5,0,1.,1.2,0.,1.2,0.,1.2,,0.0,,0.0
1979-07-18 15:07:14.350 ,5,0,0.,1.2,0.,1.2,0.,1.2,,0.0,,0.0
1979-07-18 15:07:15.550 ,5,0,0.,1.2,0.,1.2,0.,1.2,,0.0,,0.0
1979-07-18 15:07:16.750 ,5,0,0.,1.2,0.,1.2,0.,1.2,,0.0,,0.0
1979-07-18 15:07:17.950 ,5,0,1.,1.2,1.,1.2,0.,1.2,,0.0,,0.0
1979-07-18 15:07:19.150 ,5,0,0.,1.2,0.,1.2,0.,1.2,,0.0,,0.0
1979-07-18 15:07:20.350 ,5,0,0.,1.2,0.,1.2,0.,1.2,,0.0,,0.0
1979-07-18 15:07:21.550 ,5,0,1.,1.2,0.,1.2,0.,1.2,,0.0,,0.0
1979-07-18 15:07:22.750 ,5,0,1.,1.2,1.,1.2,1.,1.2,,0.0,,0.0
1979-07-18 15:07:23.950 ,5,0,0.,1.2,0.,1.2,0.,1.2,,0.0,,0.0
1979-07-18 15:07:25.150 ,5,0,0.,1.2,0.,1.2,0.,1.2,,0.0,,0.0
1979-07-18 15:07:26.350 ,5,0,0.,1.2,0.,1.2,0.,1.2,,0.0,,0.0
1979-07-18 15:07:27.550 ,5,0,0.,1.2,0.,1.2,0.,1.2,,0.0,,0.0
1979-07-18 15:07:28.750 ,5,0,0.,1.2,0.,1.2,0.,1.2,,0.0,,0.0
1979-07-18 15:07:29.950 ,5,0,1.,1.2,0.,1.2,0.,1.2,,0.0,,0.0
1979-07-18 15:07:31.150 ,5,0,1.,1.2,0.,1.2,0.,1.2,,0.0,,0.0
1979-07-18 15:07:32.350 ,5,0,0.,1.2,0.,1.2,0.,1.2,,0.0,,0.0
1979-07-18 15:07:33.550 ,5,0,0.,1.2,0.,1.2,0.,1.2,,0.0,,0.0
1979-07-18 15:07:34.750 ,5,0,0.,1.2,0.,1.2,0.,1.2,,0.0,,0.0
1979-07-18 15:07:35.950 ,5,0,1.,1.2,0.,1.2,0.,1.2,,0.0,,0.0
1979-07-18 15:07:37.150 ,5,0,0.,1.2,0.,1.2,0.,1.2,,0.0,,0.0
1979-07-18 15:07:38.350 ,5,0,0.,1.2,0.,1.2,0.,1.2,,0.0,,0.0
1979-07-18 15:07:39.550 ,5,0,0.,1.2,0.,1.2,0.,1.2,,0.0,,0.0
1979-07-18 15:07:40.750 ,5,0,0.,1.2,0.,1.2,0.,1.2,,0.0,,0.0
1979-07-18 15:07:41.950 ,5,0,0.,1.2,0.,1.2,0.,1.2,,0.0,,0.0
1979-07-18 15:07:43.150 ,5,0,1.,1.2,1.,1.2,1.,1.2,,0.0,,0.0
1979-07-18 15:07:44.350 ,5,0,0.,1.2,0.,1.2,0.,1.2,,0.0,,0.0
1979-07-18 15:07:45.550 ,5,0,0.,1.2,0.,1.2,0.,1.2,,0.0,,0.0
1979-07-18 15:07:46.750 ,5,0,0.,1.2,0.,1.2,0.,1.2,,0.0,,0.0
1979-07-18 15:07:47.950 ,5,0,0.,1.2,0.,1.2,0.,1.2,,0.0,,0.0
1979-07-18 15:07:49.150 ,5,0,0.,1.2,0.,1.2,0.,1.2,,0.0,,0.0
1979-07-18 15:07:50.350 ,5,0,0.,1.2,0.,1.2,0.,1.2,,0.0,,0.0
1979-07-18 15:07:51.550 ,5,0,1.,1.2,0.,1.2,0.,1.2,,0.0,,0.0
1979-07-18 15:07:52.750 ,5,0,0.,1.2,0.,1.2,0.,1.2,,0.0,,0.0
1979-07-18 15:07:53.950 ,5,0,0.,1.2,0.,1.2,0.,1.2,,0.0,,0.0
1979-07-18 15:07:55.150 ,5,0,0.,1.2,0.,1.2,0.,1.2,,0.0,,0.0
1979-07-18 15:07:56.350 ,5,0,1.,1.2,0.,1.2,0.,1.2,,0.0,,0.0
1979-07-18 15:07:57.550 ,5,0,0.,1.2,0.,1.2,0.,1.2,,0.0,,0.0
1979-07-18 15:07:58.750 ,4,0,0.,1.2,0.,1.2,0.,1.2,,0.0,,0.0
1979-07-18 15:07:59.950 ,4,0,0.,1.2,0.,1.2,0.,1.2,,0.0,,0.0
1979-07-18 15:08:01.150 ,4,0,0.,1.2,0.,1.2,0.,1.2,,0.0,,0.0
1979-07-18 15:08:02.350 ,4,0,0.,1.2,0.,1.2,0.,1.2,,0.0,,0.0
1979-07-18 15:08:03.550 ,4,0,0.,1.2,0.,1.2,0.,1.2,,0.0,,0.0
1979-07-18 15:08:04.750 ,4,0,0.,1.2,0.,1.2,0.,1.2,,0.0,,0.0
1979-07-18 15:08:05.950 ,4,0,0.,1.2,0.,1.2,0.,1.2,,0.0,,0.0
1979-07-18 15:08:07.150 ,4,0,1.,1.2,0.,1.2,0.,1.2,,0.0,,0.0
1979-07-18 15:08:08.350 ,4,0,0.,1.2,0.,1.2,0.,1.2,,0.0,,0.0
1979-07-18 15:08:09.550 ,4,0,0.,1.2,0.,1.2,0.,1.2,,0.0,,0.0
1979-07-18 15:08:10.750 ,4,0,0.,1.2,0.,1.2,0.,1.2,,0.0,,0.0
1979-07-18 15:08:11.950 ,4,0,0.,1.2,0.,1.2,0.,1.2,,0.0,,0.0
1979-07-18 15:08:13.150 ,4,0,0.,1.2,0.,1.2,0.,1.2,,0.0,,0.0
1979-07-18 15:08:14.350 ,4,0,1.,1.2,0.,1.2,0.,1.2,,0.0,,0.0
1979-07-18 15:08:15.550 ,4,0,0.,1.2,0.,1.2,0.,1.2,,0.0,,0.0
1979-07-18 15:08:16.750 ,4,0,0.,1.2,0.,1.2,0.,1.2,,0.0,,0.0
1979-07-18 15:08:17.950 ,4,0,0.,1.2,0.,1.2,0.,1.2,,0.0,,0.0
1979-07-18 15:08:19.150 ,4,0,0.,1.2,0.,1.2,0.,1.2,,0.0,,0.0
1979-07-18 15:08:20.350 ,4,0,0.,1.2,0.,1.2,0.,1.2,,0.0,,0.0
1979-07-18 15:08:21.550 ,4,0,0.,1.2,0.,1.2,0.,1.2,,0.0,,0.0
1979-07-18 15:08:22.750 ,4,0,0.,1.2,0.,1.2,0.,1.2,,0.0,,0.0
1979-07-18 15:08:23.950 ,4,0,0.,1.2,0.,1.2,0.,1.2,,0.0,,0.0
1979-07-18 15:08:25.150 ,4,0,0.,1.2,0.,1.2,0.,1.2,,0.0,,0.0
1979-07-18 15:08:26.350 ,4,0,0.,1.2,0.,1.2,0.,1.2,,0.0,,0.0
1979-07-18 15:08:27.550 ,4,0,0.,1.2,0.,1.2,0.,1.2,,0.0,,0.0
1979-07-18 15:08:28.750 ,4,0,0.,1.2,0.,1.2,0.,1.2,,0.0,,0.0
1979-07-18 15:08:29.950 ,4,0,1.,1.2,0.,1.2,0.,1.2,,0.0,,0.0
1979-07-18 15:08:31.150 ,4,0,0.,1.2,0.,1.2,0.,1.2,,0.0,,0.0
1979-07-18 15:08:32.350 ,4,0,0.,1.2,0.,1.2,0.,1.2,,0.0,,0.0
1979-07-18 15:08:33.550 ,4,0,0.,1.2,0.,1.2,0.,1.2,,0.0,,0.0
1979-07-18 15:08:34.750 ,4,0,0.,1.2,0.,1.2,0.,1.2,,0.0,,0.0
1979-07-18 15:08:35.950 ,4,0,0.,1.2,0.,1.2,0.,1.2,,0.0,,0.0
1979-07-18 15:08:37.150 ,4,0,0.,1.2,0.,1.2,0.,1.2,,0.0,,0.0
1979-07-18 15:08:38.350 ,4,0,0.,1.2,0.,1.2,0.,1.2,,0.0,,0.0
1979-07-18 15:08:39.550 ,4,0,0.,1.2,0.,1.2,0.,1.2,,0.0,,0.0
1979-07-18 15:08:40.750 ,4,0,0.,1.2,0.,1.2,0.,1.2,,0.0,,0.0
1979-07-18 15:08:41.950 ,4,0,0.,1.2,0.,1.2,0.,1.2,,0.0,,0.0
1979-07-18 15:08:43.150 ,4,0,0.,1.2,0.,1.2,0.,1.2,,0.0,,0.0
1979-07-18 15:08:44.350 ,4,0,0.,1.2,0.,1.2,0.,1.2,,0.0,,0.0
1979-07-18 15:08:45.550 ,4,0,0.,1.2,0.,1.2,0.,1.2,,0.0,,0.0
1979-07-18 15:08:46.750 ,3,0,0.,1.2,0.,1.2,0.,1.2,,0.0,,0.0
1979-07-18 15:08:47.950 ,3,0,0.,1.2,0.,1.2,0.,1.2,,0.0,,0.0
1979-07-18 15:08:49.150 ,3,0,0.,1.2,0.,1.2,0.,1.2,,0.0,,0.0
1979-07-18 15:08:50.350 ,3,0,0.,1.2,0.,1.2,0.,1.2,,0.0,,0.0
1979-07-18 15:08:51.550 ,3,0,0.,1.2,0.,1.2,0.,1.2,,0.0,,0.0
1979-07-18 15:08:52.750 ,3,0,1.,1.2,0.,1.2,0.,1.2,,0.0,,0.0
1979-07-18 15:08:53.950 ,3,0,0.,1.2,0.,1.2,0.,1.2,,0.0,,0.0
1979-07-18 15:08:55.150 ,3,0,0.,1.2,0.,1.2,0.,1.2,,0.0,,0.0
1979-07-18 15:08:56.350 ,3,0,1.,1.2,0.,1.2,0.,1.2,,0.0,,0.0
1979-07-18 15:08:57.550 ,3,0,1.,1.2,1.,1.2,0.,1.2,,0.0,,0.0
1979-07-18 15:08:58.750 ,3,0,0.,1.2,0.,1.2,0.,1.2,,0.0,,0.0
1979-07-18 15:08:59.950 ,3,0,0.,1.2,0.,1.2,0.,1.2,,0.0,,0.0